Tracking 30995 objects as of 5-Jul-2025
HD Live streaming from Space Station
objects crossing your sky now

ARIANE 44LP DEB

Track ARIANE 44LP DEB now!


NORAD ID: 33544
Int'l Code: 1988-109T
Perigee: 401.9 km
Apogee: 34,296.3 km
Inclination: 6.5 °
Period: 605.9 minutes
Semi major axis: 23720 km
RCS: 0.2316 m2 (medium)
Launch date: December 11, 1988
Source: France (FR)
Launch site: FRENCH GUIANA (FRGUI)

Note: This is SATELLITE DEBRIS
Your satellite tracking list
PALAPA 2
Track 1 satellite(s)




NASA's NSSDC Master Catalog

Two Line Element Set (TLE):
1 33544U 88109T   25185.50641434  .00000091  00000-0  32850-3 0  9994
2 33544   6.5119 193.8173 7144655 141.9066 301.0526  2.37644806195185
Source of the keplerian elements: AFSPC